Location: Meanaryar
(48.4161°N, 4.7315°W)
Time: 17:25:41
(UTC+00:00)

Cosmos 1805 - Pass Details

Date: 18 September 2020
Orbit: 524 x 531 km, 82.5° (Epoch: 30 October)

Event Time Altitude Azimuth Distance (km) Brightness Sun altitude
Exits shadow 20:36:27 53° 42° (NE) 663 3.5 -21.7°
Drops below altitude 10° 20:39:37 10° 15° (NNE) 1,792 6.1 -22.2°
Sets 20:41:47 0° 12° (NNE) 2,689 7.1 -22.5°
